Simultaneous Nadir Overpasses (SNOs) Predictions

Prediction of SNOs between NOAA-21 and METOP-C Satellite Orbit:

Table of predicted SNOs for the next 14.0 days since TLE Epoch: 7/20/2024
Index Date (NOAA-21) Time (NOAA-21) Lat,Lon (NOAA-21) SZA (NOAA-21 ) Date (METOP-C) Time (METOP-C) Lat,Lon (METOP-C) SZA (METOP-C ) Distance(km) Time Diff (sec)
1 07/24/2024 06:59:04 -73.49,-114.62 125.96 07/24/2024 07:00:10 -73.42,-111.58 126.22 96.68 66
2 07/24/2024 07:49:45 73.25, 53.22 53.79 07/24/2024 07:50:53 73.22, 55.32 53.62 67.42 68
3 07/24/2024 08:40:28 -73.19,-139.33 126.28 07/24/2024 08:41:37 -73.15,-137.51 126.44 58.73 69
4 07/24/2024 09:31:09 72.96, 28.50 53.47 07/24/2024 09:32:21 72.90, 29.29 53.35 26.54 72
5 07/24/2024 10:21:52 -72.90,-164.06 126.59 07/24/2024 10:23:05 -72.83,-163.54 126.71 18.68 73
6 07/24/2024 11:12:35 72.76, 3.54 53.26 07/24/2024 11:13:46 72.73, 3.59 53.22 3.19 71
7 07/24/2024 12:03:18 -72.70, 170.98 126.80 07/24/2024 12:04:29 -72.71, 170.88 126.79 3.71 71
8 07/24/2024 12:54:04 72.71, -21.74 53.23 07/24/2024 12:55:08 72.72, -21.78 53.22 1.60 64
9 07/24/2024 13:44:48 -72.70, 145.60 126.78 07/24/2024 13:45:51 -72.70, 145.50 126.79 3.11 63
10 07/24/2024 14:35:34 72.72, -47.12 53.25 07/24/2024 14:36:30 72.70, -47.16 53.22 2.06 56
11 07/24/2024 15:26:18 -72.71, 120.21 126.76 07/24/2024 15:27:12 -72.73, 120.23 126.75 2.78 54
12 07/24/2024 16:17:04 72.72, -72.50 53.27 07/24/2024 16:17:51 72.73, -72.43 53.26 3.01 47
13 07/24/2024 17:07:48 -72.71, 94.83 126.74 07/24/2024 17:08:34 -72.71, 94.86 126.75 0.98 46
14 07/24/2024 17:58:34 72.72, -97.88 53.29 07/24/2024 17:59:13 72.72, -97.80 53.26 2.86 39
15 07/24/2024 18:49:18 -72.72, 69.45 126.72 07/24/2024 18:49:56 -72.70, 69.48 126.75 2.24 38
16 07/24/2024 19:40:03 72.68,-123.16 53.25 07/24/2024 19:40:35 72.70,-123.18 53.27 2.65 32
17 07/24/2024 20:30:47 -72.67, 44.17 126.76 07/24/2024 20:31:18 -72.68, 44.11 126.75 2.47 31
18 07/24/2024 21:21:33 72.68,-148.54 53.27 07/24/2024 21:21:57 72.68,-148.55 53.27 0.33 24
19 07/24/2024 22:12:17 -72.67, 18.79 126.74 07/24/2024 22:12:40 -72.66, 18.73 126.75 2.04 23
20 07/24/2024 23:03:03 72.68,-173.93 53.29 07/24/2024 23:03:19 72.67,-173.93 53.27 2.08 16
21 07/24/2024 23:53:47 -72.68, -6.59 126.72 07/24/2024 23:54:01 -72.70, -6.54 126.70 3.03 14
22 07/25/2024 00:44:32 72.64, 160.79 53.25 07/25/2024 00:44:41 72.65, 160.70 53.27 3.38 9
23 07/25/2024 01:35:17 -72.68, -31.98 126.70 07/25/2024 01:35:23 -72.68, -31.91 126.70 2.14 6
24 07/25/2024 02:26:02 72.64, 135.41 53.27 07/25/2024 02:26:03 72.63, 135.32 53.27 3.11 1
25 07/25/2024 03:16:47 -72.68, -57.36 126.68 07/25/2024 03:16:45 -72.66, -57.29 126.70 3.32 2
26 07/25/2024 04:07:32 72.65, 110.03 53.29 07/25/2024 04:07:24 72.67, 110.05 53.31 2.32 8
27 07/25/2024 04:58:15 -72.64, -82.64 126.71 07/25/2024 04:58:06 -72.65, -82.66 126.70 1.28 9
28 07/25/2024 05:49:01 72.65, 84.65 53.31 07/25/2024 05:48:45 72.65, 84.68 53.31 1.10 16
29 07/25/2024 06:39:45 -72.64,-108.02 126.69 07/25/2024 06:39:28 -72.63,-108.04 126.70 1.45 17
30 07/25/2024 07:30:31 72.65, 59.26 53.33 07/25/2024 07:30:07 72.63, 59.30 53.31 2.88 24
31 07/25/2024 08:21:15 -72.65,-133.40 126.67 07/25/2024 08:20:50 -72.61,-133.41 126.70 3.69 25
32 07/25/2024 09:12:00 72.61, 33.98 53.30 07/25/2024 09:11:29 72.61, 33.93 53.31 2.00 31
33 07/25/2024 10:02:45 -72.65,-158.79 126.65 07/25/2024 10:02:11 -72.65,-158.68 126.66 3.42 34
34 07/25/2024 10:53:30 72.61, 8.60 53.32 07/25/2024 10:52:51 72.60, 8.55 53.31 2.28 39
35 07/25/2024 11:44:14 -72.60, 175.94 126.69 07/25/2024 11:43:33 -72.63, 175.94 126.65 2.92 41
36 07/25/2024 12:35:00 72.62, -16.78 53.34 07/25/2024 12:34:12 72.63, -16.72 53.36 2.70 48
37 07/25/2024 13:25:44 -72.61, 150.55 126.67 07/25/2024 13:24:55 -72.61, 150.57 126.65 0.73 49
38 07/25/2024 14:16:30 72.62, -42.16 53.36 07/25/2024 14:15:34 72.61, -42.09 53.36 2.47 56
39 07/25/2024 15:07:14 -72.61, 125.17 126.65 07/25/2024 15:06:17 -72.60, 125.19 126.65 1.92 57
40 07/25/2024 15:57:59 72.57, -67.44 53.32 07/25/2024 15:56:56 72.60, -67.47 53.36 2.72 63
41 07/25/2024 16:48:43 -72.56, 99.89 126.69 07/25/2024 16:47:39 -72.58, 99.82 126.65 2.88 64
42 07/25/2024 17:39:29 72.58, -92.83 53.34 07/25/2024 17:38:18 72.58, -92.84 53.36 0.59 71
43 07/25/2024 18:30:13 -72.57, 74.51 126.67 07/25/2024 18:29:01 -72.56, 74.44 126.65 2.36 72
44 07/25/2024 19:20:56 72.43,-117.90 53.19 07/25/2024 19:19:43 72.41,-118.52 53.23 21.10 73
45 07/25/2024 20:11:39 -72.37, 49.53 126.87 07/25/2024 20:10:26 -72.39, 48.76 126.78 26.10 73
46 07/25/2024 21:02:20 72.13,-142.68 52.88 07/25/2024 21:01:10 72.14,-144.40 53.01 58.70 70
47 07/25/2024 21:53:03 -72.07, 24.75 127.18 07/25/2024 21:51:54 -72.07, 22.79 127.05 66.97 69
48 07/25/2024 22:43:44 71.82,-167.48 52.56 07/25/2024 22:42:38 71.81,-170.35 52.75 99.86 66



Historial Predications of SNOs between NOAA-21 and METOP-C
